Location: Newark
(7.0858°N, 171.3717°E)
Time: 02:11:59
(UTC+00:00)

Hubble Space Telescope - Pass Details

Date: 02 October 2021
Orbit: 535 x 538 km, 28.5° (Epoch: 15 October)

Event Time Altitude Azimuth Distance (km) Brightness Sun altitude
Exits shadow 17:24:43 19° 231° (SW) 1,304 2.3 -15.1°
Maximum altitude 17:27:34 70° 150° (SSE) 567 0.9 -14.4°
Drops below altitude 10° 17:31:40 10° 66° (ENE) 1,776 4.5 -13.4°
Sets 17:33:55 0° 64° (ENE) 2,665 5.5 -12.8°
